Weather History for Falls City, NE

Change the Weather History Date:

Saturday, February 9, 2013

  Actual Average Record
Temperature  
Mean Temperature 40 °F -  
Max Temperature 51 °F 37 °F 69 °F (1976)
Min Temperature 28 °F 14 °F -15 °F (1979)
Degree Days  
Heating Degree Days 26    
Moisture  
Dew Point 31 °F    
Average Humidity 77    
Maximum Humidity 93    
Minimum Humidity 54    
Precipitation  
Precipitation 0.01 in - - ()
Sea Level Pressure  
Sea Level Pressure 29.98 in    
Wind  
Wind Speed 14 mph (SE)    
Max Wind Speed 21 mph    
Max Gust Speed 28 mph    
Visibility 8 miles    
Events Rain    
Averages and records for this station are not official NWS values.
T = Trace of Precipitation, MM = Missing Value Source: NWS Daily Summary

Daily Weather History Graph

Daily Weather History Graph

Search for Another Location

Airport:

Trip Planner

Search our weather history database for the weather conditions in past years. The results will help you decide how hot, cold, wet, or windy it might be!

Date:

Astronomy

Feb. 09, 2013 Rise Set
Actual Time 7:22 AM CST 5:51 PM CST
Civil Twilight 6:54 AM CST 6:19 PM CST
Nautical Twilight 6:22 AM CST 6:51 PM CST
Astronomical Twilight 5:50 AM CST 7:23 PM CST
Moon 6:34 AM CST (2/9) 5:35 PM CST (2/9)
Length of Visible Light 11h 25m
Length of Day
10h 29m
Waning Crescent, 0% of the Moon is Illuminated
Feb 9
Waning Crescent
Feb 10
New
Feb 17
First Quarter
Feb 25
Full
Mar 4
Last Quarter

Hourly Weather History & Observations

Time (CST) Temp. Windchill Dew Point Humidity Pressure Visibility Wind Dir Wind Speed Gust Speed Precip Events Conditions
12:53 AM 28.9 °F 18.6 °F 26.1 °F 89% 30.22 in 7.0 mi SE 12.7 mph - N/A   Overcast
1:53 AM 30.0 °F 19.1 °F 26.1 °F 85% 30.21 in 6.0 mi SE 15.0 mph - N/A   Overcast
2:53 AM 28.9 °F 19.8 °F 26.1 °F 89% 30.19 in 5.0 mi SE 10.4 mph - N/A   Overcast
3:38 AM 28.4 °F 17.5 °F 26.6 °F 93% 30.15 in 5.0 mi SE 13.8 mph - N/A   Overcast
3:53 AM 28.4 °F 18.0 °F 26.6 °F 93% 30.14 in 5.0 mi SE 12.7 mph - N/A   Overcast
4:40 AM 28.4 °F 17.0 °F 24.8 °F 86% 30.13 in 5.0 mi SE 15.0 mph - N/A   Scattered Clouds
4:53 AM 28.0 °F 16.1 °F 26.1 °F 92% 30.15 in 5.0 mi SE 16.1 mph - N/A   Partly Cloudy
5:29 AM 28.4 °F 18.5 °F 26.6 °F 93% 30.12 in 5.0 mi SE 11.5 mph 18.4 mph N/A   Mostly Cloudy
5:53 AM 28.9 °F 18.6 °F 26.1 °F 89% 30.14 in 6.0 mi SSE 12.7 mph - N/A   Scattered Clouds
6:53 AM 28.9 °F 18.2 °F 26.1 °F 89% 30.12 in 6.0 mi SSE 13.8 mph - N/A   Clear
7:53 AM 28.9 °F 19.2 °F 26.1 °F 89% 30.12 in 5.0 mi SSE 11.5 mph - N/A   Clear
8:53 AM 32.0 °F 22.1 °F 28.0 °F 85% 30.11 in 6.0 mi SSE 13.8 mph - N/A   Clear
9:53 AM 36.0 °F 25.0 °F 30.0 °F 79% 30.09 in 9.0 mi SSE 20.7 mph 27.6 mph N/A   Partly Cloudy
10:53 AM 39.9 °F 31.8 °F 30.9 °F 70% 30.07 in 10.0 mi SSE 15.0 mph 23.0 mph N/A   Clear
11:53 AM 45.0 °F 37.9 °F 30.9 °F 58% 30.04 in 10.0 mi South 16.1 mph 23.0 mph N/A   Clear
12:53 PM 48.0 °F - 33.1 °F 56% 29.99 in 10.0 mi SSE 19.6 mph 25.3 mph N/A   Clear
1:53 PM 50.0 °F - 34.0 °F 54% 29.93 in 10.0 mi SSE 20.7 mph 27.6 mph N/A   Clear
2:53 PM 51.8 °F - 35.6 °F 54% 29.87 in 10.0 mi SE 18.4 mph 27.6 mph N/A   Clear
3:53 PM 48.9 °F - 33.1 °F 54% 29.88 in 10.0 mi SE 17.3 mph 26.5 mph N/A   Clear
4:53 PM 46.9 °F - 34.0 °F 61% 29.84 in 10.0 mi SE 13.8 mph 19.6 mph N/A   Partly Cloudy
5:53 PM 44.1 °F 38.6 °F 33.1 °F 65% 29.84 in 10.0 mi SE 10.4 mph 21.9 mph N/A   Mostly Cloudy
6:53 PM 42.1 °F 35.2 °F 34.0 °F 73% 29.82 in 10.0 mi ESE 12.7 mph - 0.00 in   Overcast
7:53 PM 41.0 °F 34.7 °F 35.1 °F 79% 29.81 in 10.0 mi SE 10.4 mph - 0.00 in Rain Light Rain
8:53 PM 41.0 °F 35.8 °F 34.0 °F 76% 29.80 in 10.0 mi SE 8.1 mph - 0.01 in   Overcast
9:53 PM 41.0 °F 33.5 °F 34.0 °F 76% 29.77 in 10.0 mi SE 13.8 mph 19.6 mph N/A   Overcast
10:20 PM 41.0 °F 34.7 °F 33.8 °F 76% 29.73 in 10.0 mi SE 10.4 mph - N/A   Overcast
10:53 PM 41.0 °F 33.9 °F 35.1 °F 79% 29.73 in 10.0 mi SE 12.7 mph - N/A   Overcast
11:07 PM 41.0 °F 34.3 °F 35.6 °F 81% 29.70 in 10.0 mi SE 11.5 mph 20.7 mph N/A   Overcast
11:53 PM 39.9 °F 33.4 °F 35.1 °F 83% 29.71 in 10.0 mi SE 10.4 mph - N/A   Overcast